CW0315 Weather Reports


time (UTC)temp
C
wind
direction
speed
KPH
gust
KPH
rain 1hr
cm
rain 24hr
cm
rain mn
cm
humidity
%
barometer
mb
20260509124312 16 337 1.6 9.7 0.00 0.00 0.00 59 1015.4
20260509123312 16 0 0.0 3.2 0.00 0.00 0.00 55 1015.5
20260509122312 17 360 1.6 11.3 0.00 0.00 0.00 55 1015.7
20260509121311 17 0 0.0 9.7 0.00 0.00 0.00 59 1015.8
20260509120311 16 180 3.2 12.9 0.00 0.00 0.00 60 1016.0
20260509114311 16 292 1.6 6.4 0.00 0.00 0.00 60 1016.0
20260509113311 15 180 3.2 11.3 0.00 0.00 0.00 62 1015.8
20260509112311 15 315 1.6 6.4 0.00 0.00 0.00 60 1015.8
20260509111311 15 180 0.0 12.9 0.00 0.00 0.00 65 1015.9
20260509110311 16 180 0.0 8.0 0.00 0.00 0.00 61 1016.2
20260509105310 15 180 6.4 12.9 0.00 0.00 0.00 64 1016.0
20260509104310 15 180 1.6 12.9 0.00 0.00 0.00 66 1016.2
20260509102310 15 202 9.7 16.1 0.00 0.00 0.00 62 1016.2
20260509101311 15 0 0.0 1.6 0.00 0.00 0.00 61 1016.4
20260509100310 13 180 1.6 9.7 0.00 0.00 0.00 60 1016.2
20260509094310 13 180 4.8 11.3 0.00 0.00 0.00 61 1016.2
20260509092309 13 0 0.0 8.0 0.00 0.00 0.00 63 1016.2
20260509091309 14 270 1.6 11.3 0.00 0.00 0.00 63 1016.2
20260509090309 14 202 0.0 9.7 0.00 0.00 0.00 67 1016.2
20260509085314 14 0 0.0 9.7 0.00 0.00 0.00 64 1016.2
20260509084314 14 202 9.7 12.9 0.00 0.00 0.00 65 1016.2
20260509083316 15 202 6.4 9.7 0.00 0.00 0.00 61 1016.0
20260509081313 13 0 0.0 9.7 0.00 0.00 0.00 68 1016.2
20260509080313 13 0 0.0 9.7 0.00 0.00 0.00 67 1016.2
20260509075313 12 180 1.6 6.4 0.00 0.00 0.00 71 1016.2
20260509074313 12 180 0.0 8.0 0.00 0.00 0.00 69 1016.1
20260509073313 12 180 0.0 9.7 0.00 0.00 0.00 70 1015.8
20260509072313 12 270 0.0 11.3 0.00 0.00 0.00 73 1015.8
20260509071313 12 0 0.0 6.4 0.00 0.00 0.00 74 1015.9
20260509070313 12 180 0.0 8.0 0.00 0.00 0.00 75 1015.9
20260509065312 11 0 0.0 4.8 0.00 0.00 0.00 75 1015.7
20260509064312 10 0 0.0 3.2 0.00 0.00 0.00 77 1015.8
20260509063312 11 0 0.0 0.0 0.00 0.00 0.00 75 1015.9
20260509062312 10 0 0.0 0.0 0.00 0.00 0.00 82 1015.7
20260509061312 10 202 1.6 6.4 0.00 0.00 0.00 80 1015.9
20260509060312 9 0 0.0 0.0 0.00 0.00 0.00 81 1015.7
20260509055312 8 0 0.0 0.0 0.00 0.00 0.00 82 1015.7
20260509054311 8 0 0.0 0.0 0.00 0.00 0.00 83 1015.7
20260509052311 7 0 0.0 0.0 0.00 0.00 0.00 88 1015.4
20260509051311 6 0 0.0 0.0 0.00 0.00 0.00 90 1015.1
20260509050311 6 0 0.0 0.0 0.00 0.00 0.00 90 1014.8
20260509045311 6 0 0.0 0.0 0.00 0.00 0.00 89 1015.0
20260509044310 6 0 0.0 0.0 0.00 0.00 0.00 89 1015.0
20260509043310 6 0 0.0 0.0 0.00 0.00 0.00 88 1014.9
20260509042313 6 0 0.0 0.0 0.00 0.00 0.00 89 1014.9
20260509040310 6 0 0.0 0.0 0.00 0.00 0.00 84 1014.6
20260509034314 7 0 0.0 4.8 0.00 0.00 0.00 86 1014.9
20260509033309 7 22 0.0 6.4 0.00 0.00 0.00 86 1014.9
20260509032309 7 45 1.6 6.4 0.00 0.00 0.00 85 1014.8
20260509031309 7 0 0.0 0.0 0.00 0.00 0.00 83 1014.9
20260509030309 8 0 0.0 9.7 0.00 0.00 0.00 81 1015.0
20260509025309 8 45 4.8 11.3 0.00 0.00 0.00 81 1015.0
20260509020314 8 22 9.7 16.1 0.00 0.00 0.00 80 1015.3
20260509015313 8 22 9.7 16.1 0.00 0.00 0.00 80 1015.1
20260509014313 8 67 3.2 16.1 0.00 0.00 0.00 80 1015.4
20260509013313 8 67 9.7 16.1 0.00 0.00 0.00 79 1015.4
20260509012313 8 45 11.3 17.7 0.00 0.00 0.00 79 1015.4
20260509011313 8 45 14.5 22.5 0.00 0.00 0.00 79 1015.4
20260509010312 8 45 12.9 22.5 0.00 0.00 0.00 79 1015.3
20260509005312 8 45 14.5 24.1 0.00 0.00 0.00 78 1015.2
20260509003312 8 45 11.3 22.5 0.00 0.00 0.00 78 1015.6
20260509002312 9 45 11.3 22.5 0.00 0.00 0.00 77 1015.8
20260509001312 9 45 16.1 24.1 0.00 0.00 0.00 77 1015.7
20260509000312 9 45 14.5 25.7 0.00 0.00 0.00 76 1015.8
20260508234311 9 45 17.7 24.1 0.00 0.00 0.00 76 1015.9
20260508233311 9 45 16.1 27.4 0.00 0.00 0.00 75 1015.7
20260508232311 9 67 12.9 25.7 0.00 0.00 0.00 75 1015.7
20260508230311 9 67 14.5 20.9 0.00 0.00 0.00 74 1015.8
20260508223311 10 45 14.5 24.1 0.00 0.00 0.00 73 1016.1
20260508222310 10 67 14.5 25.7 0.00 0.00 0.00 73 1015.9
20260508220311 9 22 16.1 24.1 0.00 0.00 0.00 74 1015.6
20260508215310 9 22 11.3 20.9 0.00 0.00 0.00 74 1015.5
20260508213310 9 22 14.5 22.5 0.00 0.00 0.00 73 1015.5
20260508212310 10 22 16.1 24.1 0.00 0.00 0.00 72 1015.5
20260508211311 10 45 11.3 22.5 0.00 0.00 0.00 72 1015.7
20260508210310 10 22 12.9 22.5 0.00 0.00 0.00 72 1015.7
20260508203309 10 45 12.9 20.9 0.00 0.00 0.00 72 1015.5
20260508202314 10 45 11.3 20.9 0.00 0.00 0.00 71 1015.5
20260508201314 10 22 12.9 20.9 0.00 0.00 0.00 71 1015.4
20260508200317 10 45 11.3 19.3 0.00 0.00 0.00 74 1015.2
20260508193316 10 45 12.9 17.7 0.00 0.00 0.00 69 1014.8
20260508191313 11 22 12.9 17.7 0.00 0.00 0.00 69 1014.6
20260508190313 11 45 12.9 19.3 0.00 0.00 0.00 68 1014.2
20260508185313 11 22 12.9 17.7 0.00 0.00 0.00 68 1014.4
20260508184313 11 45 11.3 19.3 0.00 0.00 0.00 67 1014.2
20260508182312 12 22 8.0 12.9 0.00 0.00 0.00 65 1014.2
20260508180313 13 45 14.5 19.3 0.00 0.00 0.00 63 1013.9
20260508175312 13 45 4.8 14.5 0.00 0.00 0.00 63 1013.9
20260508174312 13 45 11.3 17.7 0.00 0.00 0.00 62 1013.9
20260508172311 14 45 12.9 17.7 0.00 0.00 0.00 60 1013.6
20260508170311 14 67 11.3 17.7 0.00 0.00 0.00 58 1013.3
20260508164312 15 45 12.9 20.9 0.00 0.00 0.00 57 1013.5
20260508163311 15 67 4.8 17.7 0.00 0.00 0.00 56 1013.3
20260508162311 15 360 9.7 17.7 0.00 0.00 0.00 56 1013.3
20260508160312 16 157 3.2 8.0 0.00 0.00 0.00 51 1013.2
20260508155310 16 180 1.6 8.0 0.00 0.00 0.00 47 1013.2
20260508153310 16 337 8.0 12.9 0.00 0.00 0.00 48 1013.4
20260508152310 16 180 3.2 8.0 0.00 0.00 0.00 48 1013.5
20260508150313 16 225 0.0 9.7 0.00 0.00 0.00 42 1013.6
20260508145312 16 202 1.6 9.7 0.00 0.00 0.00 47 1013.9
20260508144312 16 180 3.2 19.3 0.00 0.00 0.00 48 1013.9
20260508143312 17 202 8.0 14.5 0.00 0.00 0.00 45 1014.2
20260508140312 17 202 3.2 14.5 0.00 0.00 0.00 48 1014.3
20260508135312 16 157 3.2 17.7 0.00 0.00 0.00 46 1014.1
20260508134311 17 270 1.6 17.7 0.00 0.00 0.00 50 1014.7
20260508133311 16 292 9.7 19.3 0.00 0.00 0.00 53 1014.5
20260508132311 16 360 1.6 16.1 0.00 0.00 0.00 52 1014.7
20260508131311 15 202 8.0 19.3 0.00 0.00 0.00 54 1014.6
20260508130311 16 180 8.0 12.9 0.00 0.00 0.00 48 1014.6
20260508125311 16 202 9.7 14.5 0.00 0.00 0.00 51 1014.6